Regional Weather Roundup
Issued by NWS Newport/Morehead, NC

Current Version | Previous Version | Text Only | Print | Product List | Glossary On
Versions: 1 2 3 4 5 6 7 8 9 10 11 12 13 14 15 16 17 18 19 20 21 22 23 24 25 26 27 28 29 30 31 32 33 34 35 36 37 38 39 40 41 42 43 44 45 46 47 48 49 50
000
ASUS42 KMHX 241313
RWRMHX
WEATHER ROUNDUP FOR EASTERN NORTH CAROLINA
NATIONAL WEATHER SERVICE NEWPORT/MOREHEAD CITY NC
900 AM EDT MON APR 24 2017

NOTE: "FAIR" INDICATES FEW OR NO CLOUDS BELOW 12,000 FEET
WITH NO SIGNIFICANT WEATHER AND/OR OBSTRUCTIONS TO VISIBILITY

NCZ015>017-031-032-045>047-102-103-241400-
NORTH COAST

CITY           SKY/WX    TMP DP  RH WIND       PRES   REMARKS
EDENTON        RAIN      64  62  93 CALM      29.91F
ELIZABETH CITY LGT RAIN  63  63 100 N7        29.91F FOG
KITTY HAWK     CLOUDY    64  64 100 CALM      29.89S FOG
MANTEO         CLOUDY    66  65  95 SE6       29.90S

$$

NCZ045>047-081-094-103-104-241400-
CENTRAL COAST

CITY           SKY/WX    TMP DP  RH WIND       PRES   REMARKS
FRISCO         CLOUDY    69  67  93 NE5       29.88S FOG

$$

NCZ095-097-098-100-101-241400-
SOUTHERN COAST

CITY           SKY/WX    TMP DP  RH WIND       PRES   REMARKS
BEAUFORT       CLOUDY    70  68  93 SE9       29.84S
CEDAR ISLAND   NOT AVBL
JACKSONVILLE   LGT RAIN  64  64 100 NE10      29.82F
PINEY ISLAND   CLOUDY   N/A N/A N/A E7        29.84F
WILMINGTON     CLOUDY    66  65  96 E14G22    29.80S


$$

NCZ011>013-027>030-043-044-078>080-089-090>093-098-241400-
COASTAL PLAIN

CITY           SKY/WX    TMP DP  RH WIND       PRES   REMARKS
AHOSKIE        RAIN      56  56  99 NE5       29.93R
CLINTON        RAIN      59  59 100 NE3       29.83S
ELIZABETHTOWN  HVY RAIN  60  60 100 CALM      29.82R
GOLDSBORO      LGT RAIN  59  59 100 E3        29.84S FOG
GREENVILLE     LGT RAIN  59  59 100 NE5       29.90S
HAVELOCK       NOT AVBL
KENANSVILLE    LGT RAIN  61  59  94 CALM      29.84S FOG
KINSTON        RAIN      61  61 100 CALM      29.86F
NEW BERN       CLOUDY    65  65 100 NE7       29.86S
RICHLANDS      LGT RAIN  62  61  96 NE10      29.83F
ROCKY MOUNT    RAIN      57  57 100 NE8       29.88F FOG
WASHINGTON     LGT RAIN  62  61  98 NE7       29.87F
WHITEVILLE     LGT RAIN  61  60  97 N6        29.79R

$$

AMZ130-135-150-152-154-156-158-170-250-252-270-ANZ085-086-088-633-658-670-241400-
MARINE OBSERVATIONS

STATION/POSITION TIME  TEMP    WIND        PRES    WAVE   SWELL
                       AIR SEA DIR/SP/G            HT/PER HT/PER
                 (UTC) (F)     (DEG/KT/KT) (MB)    (FT/S) (FT/S)
CHESAPEAKE LIGHT NOT AVBL
64 E VA BEACH    1150   58 53   80/ 12/ 12 1014.1    5/ 8   5/ 8
DUCK             1248   61 62  100/  7/  7 1012.1
2 E DUCK         1230      60                N/A     5/ 8   2/11
OREGON INLET     1236   63 58   60/  4/  7 1012.1
13E OREGON INLT  1248      56                N/A     6/11   5/11
HATTERAS CG      1248   69 67   80/  6/ 10 1011.4
DIAMOND BUOY     1150   77 78  150/ 17/ 21 1011.4    8/11   7/11
CAPE LOOKOUT     1200   72     140/ 13/ 14 1010.0
BEAUFORT LAB     1248   69 65  130/  9/ 12 1009.6
30 SE NEW RVR IN 1208   72     160/ 14/ 21 1009.5
30 SE NEW RVR IN 1243      71                N/A     7/ 6   2/12
27 SE WRIGHTSVLE 1208   69 72  190/ 19/ 25 1008.5
5 SE WRIGHTSVLE  1208   67 69  160/ 12/ 19 1009.0
225 S CAPE HAT   1150   72 75  130/ 25/ 31 1010.2    7/ 7   2/11
41 SE CHARLESTON 1250   74 74  150/ 17/ 23 1005.3    7/ 8   2/11

$$




USA.gov is the U.S. government's official web portal to all federal, state and local government web resources and services.